EHI
0 0 0 0 0 0 0 0 0 0 0 0 0 0 0 0 0 0 0 0 0 0 0 0 0 0 0 0 0 0 0 0 0 0 0 0 0 0 0 0 0 0 0 0
0 0 0 0 0 0 0 0 0 0 0 0 0 0 0 0 0 0 0 0 0 0 0 0 0 0 0 0 0 0 0 0 0 0 0 0 0 0 0 0 0 0 0 0
0 0 0 0 0 0 0 0 0 0 0 0 0 0 0 0 0 0 0 0 0 0 0 0 0 0 0 0 0 0 0 0 0 0 0 0 0 0 0 0 0 0 0 0
0 0 0 0 0 0 0 0 0 0 0 0 0 0 0 0 0 0 0 0 0 0 0 0 0 0 0 0 0 0 0 0 0 0 0 0 0 0 0 0 0 0 0 0
0 0 0 0 0 0 0 0 0 0 0 0 0 0 0 0 0 0 0 0 0 0 0 0 0 0 0 0 0 0 0 0 0 0 0 0 0 0 0 0 0 0 0 0
0 0 0 0 0 0 0 0 0 0 0 0 0 0 0 0 0 0 0 0 0 0 0 0 0 0 0 0 0 0 0 0 0 0 0 0 0 0 0 0 0 0 0 0
0 0 0 0 0 0 0 0 0 0 0 0 0 0 0 0 0 0 0 0 0 0 0 0 0 0 0 0 0 0 0 0 0 0 0 0 0 0 0 0 0 0 0 0
0 0 0 0 0 0 0 0 0 0 0 0 0 0 0 0 0 0 0 0 0 0 0 0 0 0 0 0 0 0 0 0 0 0 0 0 0 0 0 0 0 0 0 0
0 0 0 0 0 0 0 0 0 0 0 0 0 0 0 0 0 0 0 0 0 0 0 0 0 0 0 0 0 0 0 0 0 0 0 0 0 0 0 0 0 0 0 0
0 0 0 0 0 0 0 0 0 0 0 0 0 0 0 0 0 0 0 0 0 0 0 0 0 0 0 0 0 0 0 0 0 0 0 0 0 0 0 0 0 0 0 0
0 0 0 0 0 0 0 0 0 0 0 0 0 0 0 0 0 0 0 0 0 0 0 0 0 0 0 0 0 0 0 0 0 0 0 0 0 0 0 0 0 0 0 0
0 0 0 0 0 0 0 0 0 0 0 0 0 0 0 0 0 0 0 0 0 0 0 0 0 0 0 0 0 0 0 0 0 0 0 0 0 0 0 0 0 0 0 0
0 0 0 0 0 0 0 0 0 0 0 0 0 0 0 0 0 0 0 0 0 0 0 0 0 0 0 0 0 0 0 0 0 0 0 0 0 0 0 0 0 0 0 0
0 0 0 0 0 0 0 0 0 0 0 0 0 0 0 0 0 0 0 0 0 0 0 0 0 0 0 0 0 0 0 0 0 0 0 0 0 0 0 0 0 0 0 0
0 0 0 0 0 0 0 0 0 0 0 0 0 0 0 0 0 0 0 0 0 0 0 0 0 0 0 0 0 0 0 0 0 0 0 0 0 0 0 0 0 0 0 0
0 0 0 0 0 0 0 0 0 0 0 0 0 0 0 0 0 0 0 0 0 0 0 0 0 0 0 0 0 0 0 0 0 0 0 0 0 0 0 0 0 0 0 0
0 0 0 0 0 0 0 0 0 0 0 0 0 0 0 0 0 0 0 0 0 0 0 0 0 0 0 0 0 0 0 0 0 0 0 0 0 0 0 0 0 0 0 0
0 0 0 0 0 0 0 0 0 0 0 0 0 0 0 0 0 0 0 0 0 0 0 0 0 0 0 0 0 0 0 0 0 0 0 0 0 0 0 0 0 0 0 0
0 0 0 0 0 0 0 0 0 0 0 0 0 0 0 0 0 0 0 0 0 0 0 0 0 0 0 0 0 0 0 0 0 0 0 0 0 0 0 0 0 0 0 0
0 0 0 0 0 0 0 0 0 0 0 0 0 0 0 0 0 0 0 0 0 0 0 0 0 0 0 0 0 0 0 0 0 0 0 0 0 0 0 0 0 0 0 0
0 0 0 0 0 0 0 0 0 0 0 0 0 0 0 0 0 0 0 0 0 0 0 0 0 0 0 0 0 0 0 0 0 0 0 0 0 0 0 0 0 0 0 0
0 0 0 0 0 0 0 0 0 0 0 0 0 0 0 0 0 0 0 0 0 0 0 0 0 0 0 0 0 0 0 0 0 0 0 0 0 0 0 0 0 0 0 0
0 0 0 0 0 0 0 0 0 0 0 0 0 0 0 0 0 0 0 0 0 0 0 0 0 0 0 0 0 0 0 0 0 0 0 0 0 0 0 0 0 0 0 0
0 0 0 0 0 0 0 0 0 0 0 0 0 0 0 0 0 0 0 0 0 0 0 0 0 0 0 0 0 0 0 0 0 0 0 0 0 0 0 0 0 0 0 0
0 0 0 0 0 0 0 0 0 0 0 0 0 0 0 0 0 0 0 0 0 0 0 0 0 0 0 0 0 0 0 0 0 0 0 0 0 0 0 0 0 0 0 0
0 0 0 0 0 0 0 0 0 0 0 0 0 0 0 0 0 0 0 0 0 0 0 0 0 0 0 0 0 0 0 0 0 0 0 0 0 0 0 0 0 0 0 0
0 0 0 0 0 0 0 0 0 0 0 0 0 0 0 0 0 0 0 0 0 0 0 0 0 0 0 0 0 0 0 0 0 0 0 0 0 0 0 0 0 0 0 0
Wind_Speed
7 6 5 7 9 7 9 9 9 8 7 8 5 5 4 4 3 2 3 3 3 4 4 4 4 5 5 5 5 4 4 5 6 6 5 5 5 5 5 5 5 5 4 4
5 5 6 9 11 11 10 10 11 9 11 7 5 3 3 4 3 3 4 4 4 4 5 5 5 6 5 6 5 4 5 6 6 5 5 5 5 5 5 5 5 5 5 5
5 4 5 8 9 9 7 7 8 12 10 3 3 3 4 4 3 3 4 4 5 5 5 6 6 6 6 6 5 5 6 6 5 5 6 6 5 5 5 6 5 5 5 5
3 3 7 8 2 5 6 5 7 6 4 3 4 4 4 4 3 4 4 5 5 5 6 6 6 6 6 5 4 5 6 6 6 5 6 6 5 6 6 5 5 5 5 5
2 3 9 8 4 4 5 4 5 6 5 4 2 1 3 3 2 3 4 5 6 6 6 6 7 6 5 5 5 5 6 7 7 6 6 6 6 7 5 4 5 5 4 5
3 4 8 6 2 1 2 4 3 3 3 2 1 1 5 4 3 5 5 5 6 6 6 6 7 5 5 6 5 7 8 8 7 6 6 7 7 6 5 4 5 5 5 5
7 7 10 7 2 2 2 5 2 2 2 2 4 6 6 5 5 5 6 7 6 7 7 7 7 5 6 6 7 8 7 6 6 6 7 7 6 5 4 4 4 4 5 5
6 7 11 4 4 5 6 2 2 2 3 4 5 6 6 6 7 6 7 7 7 7 8 7 6 5 7 8 8 6 5 5 6 6 5 5 5 5 4 4 4 5 4 5
10 10 5 4 5 4 3 3 3 3 4 5 6 7 7 7 7 7 7 7 7 7 8 8 6 5 7 8 6 5 5 6 6 5 5 4 5 5 4 4 4 4 4 5
6 8 6 5 4 3 3 4 5 5 6 5 7 8 8 7 7 7 7 7 7 7 8 9 7 7 8 8 6 5 6 6 5 5 5 4 4 4 4 5 5 5 5 5
7 7 6 6 5 5 5 5 5 5 5 6 7 8 8 7 7 7 7 6 6 7 8 9 9 8 7 6 5 5 6 6 5 5 5 5 5 5 6 6 7 7 6 5
9 7 6 7 5 5 5 6 6 6 6 6 6 8 7 7 7 7 7 7 7 7 8 9 8 8 7 6 5 6 6 6 5 4 4 4 4 4 7 8 11 12 11 9
10 7 6 7 6 5 5 6 6 6 6 7 6 6 7 7 6 6 7 7 8 8 9 9 9 9 8 6 6 6 7 6 5 4 4 4 4 4 5 5 8 10 11 12
7 5 7 7 6 6 6 6 5 5 5 5 5 5 5 6 6 7 8 8 8 8 8 8 9 9 8 6 6 7 7 7 6 5 5 5 5 5 5 5 4 4 6 10
7 7 8 6 5 5 4 3 4 4 4 5 4 5 5 6 8 8 8 8 8 8 8 8 9 10 7 6 6 7 6 5 5 5 5 5 5 4 4 5 5 5 4 5
5 4 4 4 4 3 3 3 4 5 5 5 5 6 6 7 8 8 8 7 7 9 9 9 10 9 7 6 6 6 6 9 7 4 4 4 4 4 5 5 5 5 5 4
4 4 3 3 4 4 4 4 5 5 5 6 7 7 7 7 7 8 8 7 7 9 9 9 10 9 7 6 6 5 5 6 8 5 4 5 5 5 5 5 5 6 5 6
5 5 5 5 5 5 5 5 5 6 6 7 7 6 7 7 8 9 9 9 8 9 9 8 8 8 7 7 6 5 5 5 4 5 5 5 5 5 5 5 6 6 5 5
4 4 4 5 5 4 5 5 6 6 6 6 6 7 8 8 8 9 8 8 9 11 10 7 10 8 7 7 7 5 5 5 5 4 4 7 6 5 5 5 6 6 5 5
4 4 5 5 5 5 5 6 6 7 7 6 7 8 9 9 8 8 8 9 8 8 9 9 9 7 7 7 7 4 5 5 5 5 4 5 5 5 5 5 6 5 5 5
5 6 6 6 6 6 7 7 7 8 8 7 7 9 10 11 9 7 7 10 10 7 8 11 8 6 6 7 7 4 5 5 5 5 5 5 5 5 6 5 5 5 5 5
6 6 7 7 7 8 8 7 7 8 9 8 9 9 9 10 10 9 9 9 10 11 8 6 6 8 9 9 5 4 5 5 5 5 5 5 5 6 6 6 5 5 5 5
7 8 8 8 9 9 9 8 8 8 9 10 10 10 10 10 7 8 10 7 6 10 8 7 10 13 14 7 4 5 5 5 5 5 5 5 5 5 5 6 5 5 5 5
9 9 9 9 8 8 10 11 9 8 9 10 10 10 10 9 8 7 8 11 13 13 8 10 14 15 13 5 4 5 5 5 5 5 5 5 5 5 5 5 5 5 5 5
10 10 9 9 9 9 11 11 9 9 9 8 10 10 8 7 8 9 7 9 12 13 8 10 14 14 8 5 5 5 5 5 5 5 5 5 5 5 5 5 5 5 4 4
10 9 9 9 9 8 7 7 7 8 7 8 9 7 7 6 8 8 7 8 10 12 9 7 7 8 5 5 5 6 5 6 6 6 5 5 5 5 5 5 6 5 4 4
9 9 8 8 8 8 7 7 8 9 8 8 10 8 7 7 6 7 8 7 7 7 6 6 6 5 5 5 5 5 5 5 5 5 5 5 4 5 5 5 4 4 4 4
Wind_Direction
251 260 250 248 249 227 213 208 215 238 239 255 262 259 266 278 290 294 300 295 286 278 275 277 279 275 263 255 248 236 232 236 240 243 241 243 247 248 246 242 243 244 246 251
281 266 261 263 251 235 231 225 233 253 265 251 247 252 269 283 287 280 284 286 288 287 286 282 276 272 267 260 250 236 235 242 245 244 242 242 245 247 248 246 244 240 240 242
274 300 327 271 242 212 210 210 203 231 245 241 251 264 260 264 270 268 278 283 288 286 278 277 273 266 262 258 254 242 242 246 245 242 243 245 245 244 246 246 241 242 241 237
277 341 251 246 230 193 207 236 220 226 237 227 236 251 248 232 234 266 280 287 291 285 279 276 272 271 267 264 256 249 248 248 244 239 244 247 245 246 245 243 239 240 242 240
219 261 277 287 260 191 189 259 223 219 241 251 258 316 288 246 235 256 269 274 275 273 272 275 277 273 271 269 260 254 250 249 244 236 239 243 245 247 247 243 244 241 240 236
199 233 251 252 249 192 116 270 250 197 226 240 143 305 268 260 279 284 283 277 278 282 281 281 280 274 265 265 259 255 252 249 243 234 233 238 242 245 245 239 244 245 246 239
216 237 261 256 235 114 190 248 246 208 217 212 210 228 251 275 279 275 279 282 283 286 284 278 280 275 264 263 257 257 257 253 245 237 234 236 239 240 240 237 242 244 249 250
194 219 250 222 146 186 227 242 235 238 234 237 247 260 268 272 273 277 282 285 286 286 284 282 278 268 265 263 261 262 257 253 249 243 239 235 233 240 235 227 237 246 251 260
198 218 237 189 203 226 210 230 244 240 251 255 263 267 271 273 274 278 279 281 281 279 285 288 280 262 261 267 267 263 257 255 254 249 242 233 227 233 235 225 231 240 240 251
242 257 259 256 254 256 228 232 247 249 255 254 260 267 273 276 278 278 277 278 279 282 285 288 285 270 259 267 265 256 256 257 254 247 246 239 231 226 226 226 231 236 237 244
252 269 289 270 244 249 262 263 262 259 251 250 257 267 269 275 277 276 278 279 278 277 279 282 284 279 272 265 257 256 257 255 251 242 240 241 235 229 229 229 224 230 235 233
244 238 237 257 260 259 258 257 255 260 266 262 253 261 268 272 272 275 280 282 283 280 278 281 283 281 278 266 249 250 260 257 249 244 240 237 242 260 246 241 245 243 243 241
246 256 251 260 260 250 246 252 254 253 258 269 269 262 267 273 273 276 280 282 281 281 281 283 284 282 280 271 253 245 250 254 250 241 236 234 232 238 263 265 248 247 246 246
246 254 265 260 257 257 255 257 260 266 264 262 267 274 275 277 281 282 282 281 282 283 284 283 282 281 279 271 260 255 253 252 247 237 232 230 231 233 236 248 265 266 252 250
249 237 243 258 265 268 268 269 278 284 287 289 284 283 283 284 285 284 286 288 289 287 287 287 286 285 284 272 262 257 255 252 243 237 232 231 231 232 236 240 248 261 270 260
257 257 251 253 260 268 277 275 271 277 282 283 287 285 281 279 282 286 289 289 289 289 289 288 285 284 284 274 268 262 255 255 249 238 232 232 230 232 237 240 244 247 250 250
240 251 244 252 260 264 259 255 257 267 276 277 278 282 287 290 291 291 292 288 278 278 280 279 281 284 281 271 263 261 256 256 250 242 232 228 230 233 236 237 242 245 247 242
222 226 229 231 242 255 264 264 264 267 268 272 282 287 286 285 285 288 292 296 295 292 284 274 276 283 280 273 264 257 249 246 240 238 236 232 235 234 234 237 241 247 253 248
234 234 241 242 241 244 255 265 269 270 275 278 279 279 278 278 278 282 289 293 293 294 292 288 289 287 281 275 271 256 247 245 246 243 237 245 249 238 235 239 243 244 243 242
252 249 249 256 257 251 257 265 269 273 272 270 274 279 281 280 278 280 283 279 270 267 277 287 289 283 277 275 272 256 246 243 245 247 242 237 239 241 240 240 243 243 242 241
255 258 258 259 264 262 256 257 263 268 272 268 267 271 275 279 279 275 278 284 282 273 276 283 283 280 277 274 271 256 246 244 245 244 243 242 243 245 245 243 243 243 243 243
254 257 260 262 263 268 266 257 255 262 270 272 269 268 273 278 280 275 262 261 274 283 285 279 277 276 279 279 266 256 251 247 247 245 242 240 241 246 248 245 245 246 244 242
255 255 258 260 260 264 270 266 257 256 261 264 267 268 267 268 269 272 281 274 268 279 281 275 277 281 284 280 261 256 254 251 249 247 245 243 242 243 246 247 247 246 245 242
259 260 259 261 263 267 272 272 265 258 257 261 261 260 261 270 272 257 256 274 281 283 279 278 283 285 285 270 257 255 254 253 250 248 246 246 246 245 246 246 247 247 245 240
257 259 262 263 263 263 264 267 271 268 265 265 265 261 254 248 256 269 269 268 274 280 278 279 283 284 278 262 256 255 254 250 250 248 244 244 246 246 246 245 243 243 242 237
256 258 259 255 254 259 262 263 267 269 269 272 274 268 260 254 253 259 265 266 267 274 274 273 274 275 266 258 256 256 255 259 261 255 246 244 246 246 246 246 243 240 237 234
256 257 260 262 261 256 254 254 258 264 263 264 272 274 269 265 262 261 262 264 266 266 266 266 265 262 260 257 257 256 254 252 250 248 246 244 243 242 242 240 238 234 229 225